Location: Arrington
(35.8681°N, 86.7092°W)
Time: 09:33:23
(UTC+00:00)

ATLAS 2AS CENTAUR R/B - Pass Details

Date: 01 March 2020
Orbit: 929 x 1283 km, 63.7° (Epoch: 05 April)

Event Time Altitude Azimuth Distance (km) Brightness Sun altitude
Rises 01:25:46 0° 200° (SSW) 4,125 5.9 -21.9°
Reaches altitude 10° 01:28:30 10° 198° (SSW) 3,197 5.3 -22.4°
Maximum altitude 01:36:14 69° 117° (ESE) 1,353 2.9 -24.0°
Enters shadow 01:43:02 15° 37° (NE) 2,896 4.7 -25.3°
